Location: Killam
(52.7910°N, 111.8608°W)
Time: 21:54:42
(UTC+00:00)

Vanguard 3 - Pass Details

Date: 18 February 2026
Orbit: 507 x 3205 km, 33.4° (Epoch: 11 March)

Event Time Altitude Azimuth Distance (km) Brightness Sun altitude
Rises 01:28:11 0° 235° (SW) 4,451 12.3 -7.3°
Reaches altitude 10° 01:34:16 10° 204° (SSW) 2,773 10.4 -8.2°
Maximum altitude 01:35:56 11° 189° (S) 2,517 9.9 -8.5°
Drops below altitude 10° 01:37:26 10° 174° (S) 2,430 9.6 -8.7°
Sets 01:41:30 0° 137° (SE) 2,961 9.7 -9.3°
